1517328197.1,$M4.1 23898 867 733 -22153 -27315 0 0 *55
1517328198.2,$M4.1 23899 871 737 -22153 -27315 0 0 *57
1517328199.35,$M4.1 23900 867 727 -22153 -27315 0 0 *50
1517328200.47,$M4.1 23901 871 729 -22153 -27315 0 0 *58
1517328201.59,$M4.1 23902 871 737 -22153 -27315 0 0 *54
1517328202.66,$M4.1 23903 873 737 -22153 -27315 0 0 *57
1517328203.81,$M4.1 23904 871 727 -22153 -27315 0 0 *53
1517328204.94,$M4.1 23905 871 727 -22153 -27315 0 0 *52
1517328206.04,$M4.1 23906 871 733 -22153 -27315 0 0 *54
1517328207.13,$M4.1 23907 873 741 -22153 -27315 0 0 *52
1517328208.24,$M4.1 23908 871 729 -22153 -27315 0 0 *51
1517328209.36,$M4.1 23909 871 737 -22153 -27315 0 0 *5F
1517328210.46,$M4.1 23910 871 733 -22153 -27315 0 0 *53
1517328211.56,$M4.1 23911 871 733 -22153 -27315 0 0 *52
1517328212.65,$M4.1 23912 873 741 -22153 -27315 0 0 *56
1517328213.77,$M4.1 23913 871 741 -22153 -27315 0 0 *55
1517328214.85,$M4.1 23914 873 741 -22153 -27315 0 0 *50
1517328215.92,$M4.1 23915 873 733 -22153 -27315 0 0 *54
1517328217.01,$M4.1 23916 873 741 -22153 -27315 0 0 *52
1517328218.09,$M4.1 23917 873 737 -22153 -27315 0 0 *52
1517328219.18,$M4.1 23918 873 729 -22153 -27315 0 0 *52
1517328220.26,$M4.1 23919 873 737 -22153 -27315 0 0 *5C
1517328221.36,$M4.1 23920 875 741 -22153 -27315 0 0 *51
1517328222.5,$M4.1 23921 875 747 -22153 -27315 0 0 *56
1517328223.58,$M4.1 23922 873 751 -22153 -27315 0 0 *54
1517328224.67,$M4.1 23923 873 751 -22153 -27315 0 0 *55
1517328225.75,$M4.1 23924 873 751 -22153 -27315 0 0 *52
1517328226.88,$M4.1 23925 875 747 -22153 -27315 0 0 *52
1517328228.0,$M4.1 23926 875 741 -22153 -27315 0 0 *57
1517328229.1,$M4.1 23927 875 745 -22153 -27315 0 0 *52
1517328230.22,$M4.1 23928 875 741 -22153 -27315 0 0 *59
1517328231.35,$M4.1 23929 877 747 -22153 -27315 0 0 *5C
1517328232.49,$M4.1 23930 877 747 -22153 -27315 0 0 *54
1517328233.64,$M4.1 23931 877 747 -22153 -27315 0 0 *55
1517328234.74,$M4.1 23932 875 741 -22153 -27315 0 0 *52
1517328235.85,$M4.1 23933 875 741 -22153 -27315 0 0 *53
1517328236.96,$M4.1 23934 875 745 -22153 -27315 0 0 *50
1517328238.09,$M4.1 23935 877 747 -22153 -27315 0 0 *51
1517328239.21,$M4.1 23936 877 745 -22153 -27315 0 0 *50
1517328240.32,$M4.1 23937 877 745 -22153 -27315 0 0 *51
1517328241.44,$M4.1 23938 877 737 -22153 -27315 0 0 *5B
1517328242.54,$M4.1 23939 877 733 -22153 -27315 0 0 *5E
1517328243.66,$M4.1 23940 877 733 -22153 -27315 0 0 *50
1517328244.78,$M4.1 23941 877 733 -22153 -27315 0 0 *51
1517328245.89,$M4.1 23942 877 729 -22153 -27315 0 0 *59
1517328247.04,$M4.1 23943 877 723 -22153 -27315 0 0 *52
1517328248.18,$M4.1 23944 875 711 -22153 -27315 0 0 *56
1517328249.29,$M4.1 23945 877 709 -22153 -27315 0 0 *5C
1517328250.39,$M4.1 23946 877 701 -22153 -27315 0 0 *57
1517328251.51,$M4.1 23947 875 683 -22153 -27315 0 0 *5F
1517328252.61,$M4.1 23948 875 675 -22153 -27315 0 0 *59
1517328253.75,$M4.1 23949 875 669 -22153 -27315 0 0 *55
1517328254.88,$M4.1 23950 875 665 -22153 -27315 0 0 *51
1517328256.03,$M4.1 23951 875 669 -22153 -27315 0 0 *5C
1517328257.1,$M4.1 23952 873 675 -22153 -27315 0 0 *54
1517328258.18,$M4.1 23953 873 679 -22153 -27315 0 0 *59
1517328259.27,$M4.1 23954 873 683 -22153 -27315 0 0 *5B
1517328260.39,$M4.1 23955 871 679 -22153 -27315 0 0 *5D
1517328261.47,$M4.1 23956 873 679 -22153 -27315 0 0 *5C
1517328262.56,$M4.1 23957 873 683 -22153 -27315 0 0 *58
1517328263.66,$M4.1 23958 871 679 -22153 -27315 0 0 *50
1517328264.78,$M4.1 23959 871 683 -22153 -27315 0 0 *54
1517328265.86,$M4.1 23960 873 683 -22153 -27315 0 0 *5C
1517328266.96,$M4.1 23961 871 683 -22153 -27315 0 0 *5F
1517328268.08,$M4.1 23962 871 683 -22153 -27315 0 0 *5C
1517328269.16,$M4.1 23963 873 693 -22153 -27315 0 0 *5E
1517328270.28,$M4.1 23964 867 683 -22153 -27315 0 0 *5D
1517328271.41,$M4.1 23965 871 687 -22153 -27315 0 0 *5F
1517328272.53,$M4.1 23966 867 683 -22153 -27315 0 0 *5F
1517328273.66,$M4.1 23967 867 665 -22153 -27315 0 0 *56
1517328274.81,$M4.1 23968 867 651 -22153 -27315 0 0 *5E
1517328275.96,$M4.1 23969 867 647 -22153 -27315 0 0 *58
1517328277.11,$M4.1 23970 871 651 -22153 -27315 0 0 *50
1517328278.23,$M4.1 23971 865 651 -22153 -27315 0 0 *54
1517328279.35,$M4.1 23972 865 651 -22153 -27315 0 0 *57
1517328280.48,$M4.1 23973 863 629 -22153 -27315 0 0 *5F
1517328281.6,$M4.1 23974 863 629 -22153 -27315 0 0 *58
1517328282.71,$M4.1 23975 863 629 -22153 -27315 0 0 *59
1517328283.83,$M4.1 23976 861 643 -22153 -27315 0 0 *54
1517328284.98,$M4.1 23977 863 647 -22153 -27315 0 0 *53
1517328286.1,$M4.1 23978 861 643 -22153 -27315 0 0 *5A
1517328287.22,$M4.1 23979 861 653 -22153 -27315 0 0 *5A
1517328288.33,$M4.1 23980 861 657 -22153 -27315 0 0 *58
1517328289.47,$M4.1 23981 861 661 -22153 -27315 0 0 *5C
1517328290.58,$M4.1 23982 861 661 -22153 -27315 0 0 *5F
1517328291.7,$M4.1 23983 861 669 -22153 -27315 0 0 *56
1517328292.83,$M4.1 23984 859 657 -22153 -27315 0 0 *57
1517328293.95,$M4.1 23985 861 647 -22153 -27315 0 0 *5C
1517328295.1,$M4.1 23986 859 657 -22153 -27315 0 0 *55
1517328296.25,$M4.1 23987 859 651 -22153 -27315 0 0 *52
1517328297.37,$M4.1 23988 861 669 -22153 -27315 0 0 *5D
1517328298.5,$M4.1 23989 859 661 -22153 -27315 0 0 *5F
1517328299.65,$M4.1 23990 859 665 -22153 -27315 0 0 *53
1517328300.8,$M4.1 23991 859 665 -22153 -27315 0 0 *52
1517328301.93,$M4.1 23992 859 661 -22153 -27315 0 0 *55
1517328303.08,$M4.1 23993 859 653 -22153 -27315 0 0 *55
1517328304.21,$M4.1 23994 859 647 -22153 -27315 0 0 *57
1517328305.36,$M4.1 23995 859 651 -22153 -27315 0 0 *51
1517328306.48,$M4.1 23996 857 643 -22153 -27315 0 0 *5F
1517328307.6,$M4.1 23997 857 653 -22153 -27315 0 0 *5F
1517328308.75,$M4.1 23998 859 661 -22153 -27315 0 0 *5F
1517328309.88,$M4.1 23999 859 661 -22153 -27315 0 0 *5E
1517328311.0,$M4.1 24000 857 657 -22153 -27315 0 0 *5B
1517328312.13,$M4.1 24001 855 653 -22153 -27315 0 0 *5C
1517328313.28,$M4.1 24002 855 651 -22153 -27315 0 0 *5D
1517328314.43,$M4.1 24003 855 661 -22153 -27315 0 0 *5F
1517328315.56,$M4.1 24004 855 665 -22153 -27315 0 0 *5C
1517328316.68,$M4.1 24005 857 661 -22153 -27315 0 0 *5B
1517328317.8,$M4.1 24006 857 661 -22153 -27315 0 0 *58
1517328318.95,$M4.1 24007 855 661 -22153 -27315 0 0 *5B
1517328320.06,$M4.1 24008 857 665 -22153 -27315 0 0 *52
1517328321.18,$M4.1 24009 857 673 -22153 -27315 0 0 *54
1517328322.3,$M4.1 24010 857 665 -22153 -27315 0 0 *5B
1517328323.42,$M4.1 24011 857 669 -22153 -27315 0 0 *56
1517328324.52,$M4.1 24012 857 669 -22153 -27315 0 0 *55
1517328325.65,$M4.1 24013 855 669 -22153 -27315 0 0 *56
1517328326.74,$M4.1 24014 857 679 -22153 -27315 0 0 *52
1517328327.89,$M4.1 24015 855 673 -22153 -27315 0 0 *5B
1517328328.97,$M4.1 24016 857 683 -22153 -27315 0 0 *55
1517328330.07,$M4.1 24017 855 683 -22153 -27315 0 0 *56
1517328331.17,$M4.1 24018 857 683 -22153 -27315 0 0 *5B
1517328332.28,$M4.1 24019 857 687 -22153 -27315 0 0 *5E
1517328333.39,$M4.1 24020 859 683 -22153 -27315 0 0 *5E
1517328334.48,$M4.1 24021 857 675 -22153 -27315 0 0 *58
1517328335.58,$M4.1 24022 857 683 -22153 -27315 0 0 *52
1517328336.66,$M4.1 24023 857 679 -22153 -27315 0 0 *56
1517328337.77,$M4.1 24024 859 679 -22153 -27315 0 0 *5F
1517328338.88,$M4.1 24025 859 679 -22153 -27315 0 0 *5E
1517328339.97,$M4.1 24026 857 679 -22153 -27315 0 0 *53
1517328341.09,$M4.1 24027 857 665 -22153 -27315 0 0 *5F
1517328342.24,$M4.1 24028 859 673 -22153 -27315 0 0 *59
1517328343.35,$M4.1 24029 857 673 -22153 -27315 0 0 *56
1517328344.49,$M4.1 24030 859 669 -22153 -27315 0 0 *5B
1517328345.6,$M4.1 24031 857 669 -22153 -27315 0 0 *54
1517328346.72,$M4.1 24032 857 665 -22153 -27315 0 0 *5B
1517328347.84,$M4.1 24033 857 657 -22153 -27315 0 0 *5B
1517328348.94,$M4.1 24034 857 657 -22153 -27315 0 0 *5C
1517328350.07,$M4.1 24035 857 665 -22153 -27315 0 0 *5C
1517328351.17,$M4.1 24036 857 661 -22153 -27315 0 0 *5B
1517328352.29,$M4.1 24037 857 661 -22153 -27315 0 0 *5A
1517328353.41,$M4.1 24038 857 661 -22153 -27315 0 0 *55
1517328354.53,$M4.1 24039 857 669 -22153 -27315 0 0 *5C
1517328355.64,$M4.1 24040 857 665 -22153 -27315 0 0 *5E
1517328356.74,$M4.1 24041 857 661 -22153 -27315 0 0 *5B
1517328357.86,$M4.1 24042 857 653 -22153 -27315 0 0 *59
1517328358.98,$M4.1 24043 857 661 -22153 -27315 0 0 *59
1517328360.11,$M4.1 24044 855 653 -22153 -27315 0 0 *5D
1517328361.23,$M4.1 24045 857 657 -22153 -27315 0 0 *5A
1517328362.36,$M4.1 24046 855 653 -22153 -27315 0 0 *5F
1517328363.5,$M4.1 24047 855 651 -22153 -27315 0 0 *5C
1517328364.63,$M4.1 24048 853 639 -22153 -27315 0 0 *5B
1517328365.76,$M4.1 24049 855 653 -22153 -27315 0 0 *50
1517328366.89,$M4.1 24050 855 661 -22153 -27315 0 0 *59
1517328368.03,$M4.1 24051 855 653 -22153 -27315 0 0 *59
1517328369.18,$M4.1 24052 855 651 -22153 -27315 0 0 *58
1517328370.29,$M4.1 24053 853 647 -22153 -27315 0 0 *58
1517328371.43,$M4.1 24054 855 661 -22153 -27315 0 0 *5D
1517328372.58,$M4.1 24055 855 661 -22153 -27315 0 0 *5C
1517328373.69,$M4.1 24056 853 657 -22153 -27315 0 0 *5C
1517328374.81,$M4.1 24057 853 657 -22153 -27315 0 0 *5D
1517328375.94,$M4.1 24058 855 661 -22153 -27315 0 0 *51
1517328377.08,$M4.1 24059 855 661 -22153 -27315 0 0 *50
1517328378.19,$M4.1 24060 853 653 -22153 -27315 0 0 *5D
1517328379.31,$M4.1 24061 853 653 -22153 -27315 0 0 *5C
1517328380.44,$M4.1 24062 855 657 -22153 -27315 0 0 *5D
1517328381.58,$M4.1 24063 855 653 -22153 -27315 0 0 *58
1517328382.7,$M4.1 24064 853 653 -22153 -27315 0 0 *59
1517328383.83,$M4.1 24065 853 651 -22153 -27315 0 0 *5A
1517328384.95,$M4.1 24066 853 647 -22153 -27315 0 0 *5E
1517328386.06,$M4.1 24067 853 647 -22153 -27315 0 0 *5F
1517328387.18,$M4.1 24068 853 643 -22153 -27315 0 0 *54
1517328388.3,$M4.1 24069 849 643 -22153 -27315 0 0 *5E
1517328389.42,$M4.1 24070 853 653 -22153 -27315 0 0 *5C
1517328390.53,$M4.1 24071 849 653 -22153 -27315 0 0 *56
1517328391.65,$M4.1 24072 853 661 -22153 -27315 0 0 *5F
1517328392.77,$M4.1 24073 849 657 -22153 -27315 0 0 *50
1517328393.88,$M4.1 24074 849 651 -22153 -27315 0 0 *51
1517328395.0,$M4.1 24075 853 653 -22153 -27315 0 0 *59
1517328396.1,$M4.1 24076 849 653 -22153 -27315 0 0 *51
1517328397.22,$M4.1 24077 849 653 -22153 -27315 0 0 *50
1517328398.34,$M4.1 24078 853 661 -22153 -27315 0 0 *55
1517328399.45,$M4.1 24079 853 661 -22153 -27315 0 0 *54
1517328400.57,$M4.1 24080 849 661 -22153 -27315 0 0 *59
1517328401.69,$M4.1 24081 853 669 -22153 -27315 0 0 *5B
1517328402.81,$M4.1 24082 849 673 -22153 -27315 0 0 *58
1517328403.92,$M4.1 24083 853 669 -22153 -27315 0 0 *59
1517328405.03,$M4.1 24084 855 675 -22153 -27315 0 0 *55
1517328406.14,$M4.1 24085 853 669 -22153 -27315 0 0 *5F
1517328407.26,$M4.1 24086 853 673 -22153 -27315 0 0 *57
1517328408.38,$M4.1 24087 853 665 -22153 -27315 0 0 *51
1517328409.51,$M4.1 24088 853 665 -22153 -27315 0 0 *5E
1517328410.63,$M4.1 24089 853 665 -22153 -27315 0 0 *5F
1517328411.74,$M4.1 24090 853 657 -22153 -27315 0 0 *56
1517328412.86,$M4.1 24091 853 661 -22153 -27315 0 0 *52
1517328413.99,$M4.1 24092 849 651 -22153 -27315 0 0 *59
1517328415.1,$M4.1 24093 849 657 -22153 -27315 0 0 *5E
1517328416.21,$M4.1 24094 849 661 -22153 -27315 0 0 *5C
1517328417.36,$M4.1 24095 855 665 -22153 -27315 0 0 *54
1517328418.48,$M4.1 24096 853 669 -22153 -27315 0 0 *5D
1517328419.6,$M4.1 24097 849 665 -22153 -27315 0 0 *5B
1517328420.75,$M4.1 24098 847 647 -22153 -27315 0 0 *5A
1517328421.85,$M4.1 24099 849 629 -22153 -27315 0 0 *5D
1517328422.95,$M4.1 24100 849 639 -22153 -27315 0 0 *5D
1517328424.07,$M4.1 24101 849 643 -22153 -27315 0 0 *51
1517328425.18,$M4.1 24102 849 639 -22153 -27315 0 0 *5F
1517328426.32,$M4.1 24103 847 633 -22153 -27315 0 0 *5A
1517328427.43,$M4.1 24104 849 635 -22153 -27315 0 0 *55
1517328428.55,$M4.1 24105 849 635 -22153 -27315 0 0 *54
1517328429.7,$M4.1 24106 847 651 -22153 -27315 0 0 *5B
1517328430.85,$M4.1 24107 847 657 -22153 -27315 0 0 *5C
1517328431.98,$M4.1 24108 847 661 -22153 -27315 0 0 *56
1517328433.12,$M4.1 24109 847 653 -22153 -27315 0 0 *56
1517328434.23,$M4.1 24110 849 653 -22153 -27315 0 0 *50
1517328435.37,$M4.1 24111 847 657 -22153 -27315 0 0 *5B
1517328436.52,$M4.1 24112 847 657 -22153 -27315 0 0 *58
1517328437.65,$M4.1 24113 847 653 -22153 -27315 0 0 *5D
1517328438.77,$M4.1 24114 849 643 -22153 -27315 0 0 *55
1517328439.88,$M4.1 24115 849 647 -22153 -27315 0 0 *50
1517328441.03,$M4.1 24116 847 653 -22153 -27315 0 0 *58
1517328442.13,$M4.1 24117 849 653 -22153 -27315 0 0 *57
1517328443.28,$M4.1 24118 847 647 -22153 -27315 0 0 *53
1517328444.43,$M4.1 24119 847 657 -22153 -27315 0 0 *53
1517328445.56,$M4.1 24120 847 657 -22153 -27315 0 0 *59
1517328446.68,$M4.1 24121 845 653 -22153 -27315 0 0 *5E
1517328447.8,$M4.1 24122 845 657 -22153 -27315 0 0 *59
1517328448.95,$M4.1 24123 847 661 -22153 -27315 0 0 *5F
1517328450.1,$M4.1 24124 847 651 -22153 -27315 0 0 *5B
1517328451.23,$M4.1 24125 847 643 -22153 -27315 0 0 *59
1517328452.35,$M4.1 24126 845 639 -22153 -27315 0 0 *55
1517328453.46,$M4.1 24127 845 639 -22153 -27315 0 0 *54
1517328454.6,$M4.1 24128 845 635 -22153 -27315 0 0 *57
1517328455.72,$M4.1 24129 843 635 -22153 -27315 0 0 *50
1517328456.86,$M4.1 24130 847 643 -22153 -27315 0 0 *5D
1517328457.95,$M4.1 24131 843 633 -22153 -27315 0 0 *5F
1517328459.08,$M4.1 24132 845 635 -22153 -27315 0 0 *5C
1517328460.17,$M4.1 24133 843 633 -22153 -27315 0 0 *5D
1517328461.28,$M4.1 24134 845 639 -22153 -27315 0 0 *56
1517328462.42,$M4.1 24135 845 647 -22153 -27315 0 0 *5E
1517328463.52,$M4.1 24136 843 647 -22153 -27315 0 0 *5B
1517328464.64,$M4.1 24137 843 647 -22153 -27315 0 0 *5A
1517328465.75,$M4.1 24138 843 651 -22153 -27315 0 0 *52
1517328466.89,$M4.1 24139 845 647 -22153 -27315 0 0 *52
1517328468.0,$M4.1 24140 843 651 -22153 -27315 0 0 *5D
1517328469.11,$M4.1 24141 845 653 -22153 -27315 0 0 *58
1517328470.24,$M4.1 24142 845 661 -22153 -27315 0 0 *5A
1517328471.36,$M4.1 24143 843 651 -22153 -27315 0 0 *5E
1517328472.46,$M4.1 24144 843 639 -22153 -27315 0 0 *57
1517328473.57,$M4.1 24145 843 635 -22153 -27315 0 0 *5A
1517328474.69,$M4.1 24146 843 639 -22153 -27315 0 0 *55
1517328475.81,$M4.1 24147 843 639 -22153 -27315 0 0 *54
1517328476.93,$M4.1 24148 843 643 -22153 -27315 0 0 *56
1517328478.06,$M4.1 24149 841 635 -22153 -27315 0 0 *54
1517328479.18,$M4.1 24150 843 643 -22153 -27315 0 0 *5F
1517328480.29,$M4.1 24151 843 647 -22153 -27315 0 0 *5A
1517328481.43,$M4.1 24152 843 635 -22153 -27315 0 0 *5C
1517328482.55,$M4.1 24153 843 635 -22153 -27315 0 0 *5D
1517328483.69,$M4.1 24154 841 635 -22153 -27315 0 0 *58
1517328484.81,$M4.1 24155 843 647 -22153 -27315 0 0 *5E
1517328485.94,$M4.1 24156 841 647 -22153 -27315 0 0 *5F
1517328487.05,$M4.1 24157 839 653 -22153 -27315 0 0 *54
1517328488.16,$M4.1 24158 843 665 -22153 -27315 0 0 *53
1517328489.28,$M4.1 24159 845 661 -22153 -27315 0 0 *50
1517328490.4,$M4.1 24160 843 653 -22153 -27315 0 0 *5D
1517328491.53,$M4.1 24161 841 657 -22153 -27315 0 0 *5A
1517328492.66,$M4.1 24162 841 653 -22153 -27315 0 0 *5D
1517328493.8,$M4.1 24163 841 669 -22153 -27315 0 0 *55
1517328494.95,$M4.1 24164 841 661 -22153 -27315 0 0 *5A
1517328496.06,$M4.1 24165 843 665 -22153 -27315 0 0 *5D
1517328497.16,$M4.1 24166 843 669 -22153 -27315 0 0 *52
1517328498.28,$M4.1 24167 843 673 -22153 -27315 0 0 *58
1517328499.4,$M4.1 24168 845 673 -22153 -27315 0 0 *51
1517328500.52,$M4.1 24169 843 673 -22153 -27315 0 0 *56
1517328501.63,$M4.1 24170 843 669 -22153 -27315 0 0 *55
1517328502.73,$M4.1 24171 843 661 -22153 -27315 0 0 *5C
1517328503.85,$M4.1 24172 843 657 -22153 -27315 0 0 *5A
1517328504.97,$M4.1 24173 843 657 -22153 -27315 0 0 *5B
1517328506.07,$M4.1 24174 843 661 -22153 -27315 0 0 *59
1517328507.19,$M4.1 24175 843 657 -22153 -27315 0 0 *5D
1517328508.29,$M4.1 24176 843 653 -22153 -27315 0 0 *5A
1517328509.41,$M4.1 24177 843 661 -22153 -27315 0 0 *5A
1517328510.52,$M4.1 24178 843 657 -22153 -27315 0 0 *50
1517328511.62,$M4.1 24179 843 661 -22153 -27315 0 0 *54
1517328512.76,$M4.1 24180 845 665 -22153 -27315 0 0 *50
1517328513.86,$M4.1 24181 843 661 -22153 -27315 0 0 *53
1517328514.98,$M4.1 24182 843 661 -22153 -27315 0 0 *50
1517328516.09,$M4.1 24183 843 661 -22153 -27315 0 0 *51
1517328517.19,$M4.1 24184 843 653 -22153 -27315 0 0 *57
1517328518.33,$M4.1 24185 845 647 -22153 -27315 0 0 *55
1517328519.45,$M4.1 24186 843 647 -22153 -27315 0 0 *50
1517328520.56,$M4.1 24187 843 651 -22153 -27315 0 0 *56
1517328521.68,$M4.1 24188 843 647 -22153 -27315 0 0 *5E
1517328522.81,$M4.1 24189 841 647 -22153 -27315 0 0 *5D
1517328523.96,$M4.1 24190 841 651 -22153 -27315 0 0 *52
1517328525.11,$M4.1 24191 841 653 -22153 -27315 0 0 *51
1517328526.24,$M4.1 24192 841 661 -22153 -27315 0 0 *53
1517328527.36,$M4.1 24193 843 661 -22153 -27315 0 0 *50
1517328528.49,$M4.1 24194 841 657 -22153 -27315 0 0 *50
1517328529.63,$M4.1 24195 841 657 -22153 -27315 0 0 *51
1517328530.71,$M4.1 24196 843 675 -22153 -27315 0 0 *50
1517328531.83,$M4.1 24197 843 673 -22153 -27315 0 0 *57
1517328532.95,$M4.1 24198 843 673 -22153 -27315 0 0 *58
1517328534.07,$M4.1 24199 843 669 -22153 -27315 0 0 *52
1517328535.15,$M4.1 24200 843 675 -22153 -27315 0 0 *5C
1517328536.25,$M4.1 24201 843 669 -22153 -27315 0 0 *50
1517328537.35,$M4.1 24202 843 669 -22153 -27315 0 0 *53
1517328538.47,$M4.1 24203 843 673 -22153 -27315 0 0 *59
1517328539.59,$M4.1 24204 843 665 -22153 -27315 0 0 *59
1517328540.74,$M4.1 24205 841 657 -22153 -27315 0 0 *5B
1517328541.84,$M4.1 24206 843 653 -22153 -27315 0 0 *5E
1517328542.95,$M4.1 24207 843 653 -22153 -27315 0 0 *5F
1517328544.07,$M4.1 24208 843 657 -22153 -27315 0 0 *54
1517328545.19,$M4.1 24209 843 665 -22153 -27315 0 0 *54
1517328546.31,$M4.1 24210 843 673 -22153 -27315 0 0 *5B
1517328547.42,$M4.1 24211 843 665 -22153 -27315 0 0 *5D
1517328548.54,$M4.1 24212 843 661 -22153 -27315 0 0 *5A
1517328549.66,$M4.1 24213 845 661 -22153 -27315 0 0 *5D
1517328550.77,$M4.1 24214 843 657 -22153 -27315 0 0 *59
1517328551.91,$M4.1 24215 841 665 -22153 -27315 0 0 *5B
1517328553.03,$M4.1 24216 843 673 -22153 -27315 0 0 *5D
1517328554.11,$M4.1 24217 843 675 -22153 -27315 0 0 *5A
1517328555.24,$M4.1 24218 845 665 -22153 -27315 0 0 *52
1517328556.36,$M4.1 24219 845 665 -22153 -27315 0 0 *53
1517328557.48,$M4.1 24220 843 665 -22153 -27315 0 0 *5F
1517328558.59,$M4.1 24221 845 669 -22153 -27315 0 0 *54
1517328559.74,$M4.1 24222 841 665 -22153 -27315 0 0 *5F
1517328560.86,$M4.1 24223 843 661 -22153 -27315 0 0 *58
1517328561.98,$M4.1 24224 843 661 -22153 -27315 0 0 *5F
1517328563.08,$M4.1 24225 843 653 -22153 -27315 0 0 *5F
1517328564.2,$M4.1 24226 843 647 -22153 -27315 0 0 *59
1517328565.31,$M4.1 24227 843 651 -22153 -27315 0 0 *5F
1517328566.43,$M4.1 24228 843 653 -22153 -27315 0 0 *52
1517328567.58,$M4.1 24229 841 647 -22153 -27315 0 0 *54
1517328568.7,$M4.1 24230 843 651 -22153 -27315 0 0 *59
1517328569.81,$M4.1 24231 839 651 -22153 -27315 0 0 *55
1517328570.96,$M4.1 24232 841 647 -22153 -27315 0 0 *5E
1517328572.08,$M4.1 24233 843 651 -22153 -27315 0 0 *5A
1517328573.23,$M4.1 24234 841 647 -22153 -27315 0 0 *58
1517328574.36,$M4.1 24235 841 647 -22153 -27315 0 0 *59
1517328575.48,$M4.1 24236 839 643 -22153 -27315 0 0 *51
1517328576.63,$M4.1 24237 841 647 -22153 -27315 0 0 *5B
1517328577.73,$M4.1 24238 839 647 -22153 -27315 0 0 *5B
1517328578.88,$M4.1 24239 841 647 -22153 -27315 0 0 *55
1517328580.0,$M4.1 24240 843 651 -22153 -27315 0 0 *5E
1517328581.13,$M4.1 24241 841 653 -22153 -27315 0 0 *5F
1517328582.25,$M4.1 24242 839 651 -22153 -27315 0 0 *51
1517328583.4,$M4.1 24243 841 657 -22153 -27315 0 0 *59
1517328584.5,$M4.1 24244 839 657 -22153 -27315 0 0 *51
1517328585.62,$M4.1 24245 839 665 -22153 -27315 0 0 *51
1517328586.75,$M4.1 24246 841 657 -22153 -27315 0 0 *5C
1517328587.9,$M4.1 24247 841 647 -22153 -27315 0 0 *5C
1517328589.05,$M4.1 24248 841 635 -22153 -27315 0 0 *56
1517328590.15,$M4.1 24249 839 639 -22153 -27315 0 0 *54
1517328591.3,$M4.1 24250 841 635 -22153 -27315 0 0 *5F
1517328592.45,$M4.1 24251 841 635 -22153 -27315 0 0 *5E
1517328593.56,$M4.1 24252 839 635 -22153 -27315 0 0 *52
1517328594.71,$M4.1 24253 841 635 -22153 -27315 0 0 *5C
1517328595.85,$M4.1 24254 837 635 -22153 -27315 0 0 *5A
1517328597.0,$M4.1 24255 841 643 -22153 -27315 0 0 *5B
1517328598.11,$M4.1 24256 839 639 -22153 -27315 0 0 *5A
1517328599.21,$M4.1 24257 839 643 -22153 -27315 0 0 *56
1517328600.36,$M4.1 24258 837 643 -22153 -27315 0 0 *57
1517328601.5,$M4.1 24259 837 651 -22153 -27315 0 0 *55
1517328602.65,$M4.1 24260 837 647 -22153 -27315 0 0 *58
1517328603.78,$M4.1 24261 837 653 -22153 -27315 0 0 *5C
1517328604.88,$M4.1 24262 839 651 -22153 -27315 0 0 *53
1517328606.03,$M4.1 24263 837 647 -22153 -27315 0 0 *5B
1517328607.15,$M4.1 24264 839 651 -22153 -27315 0 0 *55
1517328608.25,$M4.1 24265 839 653 -22153 -27315 0 0 *56
1517328609.37,$M4.1 24266 839 647 -22153 -27315 0 0 *50
1517328610.5,$M4.1 24267 837 643 -22153 -27315 0 0 *5B
1517328611.65,$M4.1 24268 837 647 -22153 -27315 0 0 *50
1517328612.78,$M4.1 24269 837 639 -22153 -27315 0 0 *58
1517328613.91,$M4.1 24270 837 643 -22153 -27315 0 0 *5D
1517328615.06,$M4.1 24271 837 643 -22153 -27315 0 0 *5C
1517328616.2,$M4.1 24272 837 647 -22153 -27315 0 0 *5B
1517328617.35,$M4.1 24273 837 651 -22153 -27315 0 0 *5D
1517328618.48,$M4.1 24274 837 653 -22153 -27315 0 0 *58
1517328619.61,$M4.1 24275 837 653 -22153 -27315 0 0 *59
1517328620.75,$M4.1 24276 837 651 -22153 -27315 0 0 *58
1517328621.89,$M4.1 24277 837 643 -22153 -27315 0 0 *5A
1517328623.03,$M4.1 24278 837 647 -22153 -27315 0 0 *51
1517328624.16,$M4.1 24279 837 643 -22153 -27315 0 0 *54
1517328625.31,$M4.1 24280 837 643 -22153 -27315 0 0 *52
1517328626.44,$M4.1 24281 837 635 -22153 -27315 0 0 *52
1517328627.59,$M4.1 24282 837 647 -22153 -27315 0 0 *54
1517328628.73,$M4.1 24283 833 643 -22153 -27315 0 0 *55
1517328629.87,$M4.1 24284 833 647 -22153 -27315 0 0 *56
1517328631.01,$M4.1 24285 833 643 -22153 -27315 0 0 *53
1517328632.14,$M4.1 24286 837 643 -22153 -27315 0 0 *54
1517328633.29,$M4.1 24287 837 643 -22153 -27315 0 0 *55
1517328634.42,$M4.1 24288 833 639 -22153 -27315 0 0 *53
1517328635.56,$M4.1 24289 837 647 -22153 -27315 0 0 *5F
1517328636.71,$M4.1 24290 833 643 -22153 -27315 0 0 *57
1517328637.84,$M4.1 24291 833 651 -22153 -27315 0 0 *55
1517328638.99,$M4.1 24292 837 651 -22153 -27315 0 0 *52
1517328640.12,$M4.1 24293 837 647 -22153 -27315 0 0 *54
1517328641.27,$M4.1 24294 837 647 -22153 -27315 0 0 *53
1517328642.4,$M4.1 24295 837 643 -22153 -27315 0 0 *56
1517328643.54,$M4.1 24296 833 639 -22153 -27315 0 0 *5C
1517328644.67,$M4.1 24297 833 653 -22153 -27315 0 0 *51
1517328645.82,$M4.1 24298 833 651 -22153 -27315 0 0 *5C
1517328646.97,$M4.1 24299 837 651 -22153 -27315 0 0 *59
1517328648.1,$M4.1 24300 833 647 -22153 -27315 0 0 *5B
1517328649.25,$M4.1 24301 837 651 -22153 -27315 0 0 *59
1517328650.38,$M4.1 24302 837 651 -22153 -27315 0 0 *5A
1517328651.52,$M4.1 24303 837 653 -22153 -27315 0 0 *59
1517328652.67,$M4.1 24304 837 651 -22153 -27315 0 0 *5C
1517328653.8,$M4.1 24305 837 647 -22153 -27315 0 0 *5A
1517328654.93,$M4.1 24306 833 647 -22153 -27315 0 0 *5D
1517328656.07,$M4.1 24307 837 653 -22153 -27315 0 0 *5D
1517328657.21,$M4.1 24308 837 651 -22153 -27315 0 0 *50
1517328658.35,$M4.1 24309 837 653 -22153 -27315 0 0 *53
1517328659.48,$M4.1 24310 837 651 -22153 -27315 0 0 *59
1517328660.61,$M4.1 24311 833 639 -22153 -27315 0 0 *52
1517328661.76,$M4.1 24312 837 643 -22153 -27315 0 0 *58
1517328662.9,$M4.1 24313 837 643 -22153 -27315 0 0 *59
1517328664.05,$M4.1 24314 837 643 -22153 -27315 0 0 *5E
1517328665.18,$M4.1 24315 833 635 -22153 -27315 0 0 *5A
1517328666.33,$M4.1 24316 833 639 -22153 -27315 0 0 *55
1517328667.46,$M4.1 24317 833 639 -22153 -27315 0 0 *54
1517328668.59,$M4.1 24318 837 651 -22153 -27315 0 0 *51